This is the latest recevied weather packets stored in our database for station/object CA3PBK-13. If no packets are shown the sender has not sent any weather packets the latest 10 day(s).
| Time | Temp. | Humidity | Pressure | Rain* | Wind** | Luminosity | Snow |
|---|---|---|---|---|---|---|---|
| 1778247427 | 12.78° C | 1% | 931.7 hPa | 0 mm | - | - | - |
| 1778247308 | 12.78° C | 1% | 931.7 hPa | 0 mm | - | - | - |
| 1778247187 | 12.22° C | 1% | 931.8 hPa | 0 mm | - | - | - |
| 1778247067 | 12.78° C | 1% | 931.8 hPa | 0 mm | - | - | - |
| 1778246947 | 12.78° C | 1% | 931.8 hPa | 0 mm | - | - | - |
| 1778246827 | 13.33° C | 1% | 931.8 hPa | 0 mm | - | - | - |
| 1778246708 | 12.78° C | 1% | 931.9 hPa | 0 mm | - | - | - |
| 1778246587 | 13.33° C | 1% | 932 hPa | 0 mm | - | - | - |
| 1778246467 | 13.89° C | 1% | 932 hPa | 0 mm | - | - | - |
| 1778246347 | 13.33° C | 1% | 932 hPa | 0 mm | - | - | - |
| 1778246227 | 13.33° C | 1% | 931.9 hPa | 0 mm | - | - | - |
| 1778246108 | 12.78° C | 1% | 931.9 hPa | 0 mm | - | - | - |
| 1778245987 | 12.78° C | 1% | 931.9 hPa | 0 mm | - | - | - |
| 1778245867 | 12.22° C | 1% | 931.9 hPa | 0 mm | - | - | - |
| 1778245747 | 12.78° C | 1% | 931.8 hPa | 0 mm | - | - | - |
| 1778245627 | 12.78° C | 1% | 931.6 hPa | 0 mm | - | - | - |
| 1778245508 | 12.22° C | 1% | 931.6 hPa | 0 mm | - | - | - |
| 1778245388 | 12.22° C | 1% | 931.8 hPa | 0 mm | - | - | - |
| 1778245267 | 11.67° C | 1% | 931.8 hPa | 0 mm | - | - | - |
| 1778245147 | 12.22° C | 1% | 931.8 hPa | 0 mm | - | - | - |
| 1778245027 | 12.22° C | 1% | 931.6 hPa | 0 mm | - | - | - |
| 1778244908 | 11.67° C | 1% | 931.7 hPa | 0 mm | - | - | - |
| 1778244787 | 11.67° C | 1% | 931.9 hPa | 0 mm | - | - | - |
| 1778244667 | 11.67° C | 1% | 932.1 hPa | 0 mm | - | - | - |
| 1778244547 | 11.67° C | 1% | 932.1 hPa | 0 mm | - | - | - |
* Rain latest hour (hover to see other rain measurements)
** Current wind speed in m/s (hover to see current wind gust speed)